SCP
0 0 0 0 0 0 0 0 0 0 0 0 0 0 0 0 0 0 0 0 0 0 0 0 0 0 0 0 0 0 0 0 0 0 0 0 0 0 0 0 0 0 0 0 0
0 0 0 0 0 0 0 0 0 0 0 0 0 0 0 0 0 0 0 0 0 0 0 0 0 0 0 0 0 0 0 0 0 0 0 0 0 0 0 0 0 0 0 0 0
0 0 0 0 0 0 0 0 0 0 0 0 0 0 0 0 0 0 0 0 0 0 0 0 0 0 0 0 0 0 0 0 0 0 0 0 0 0 0 0 0 0 0 0 0
0 0 0 0 0 0 0 0 0 0 0 0 0 0 0 0 0 0 0 0 0 0 0 0 0 0 0 0 0 0 0 0 0 0 0 0 0 0 0 0 0 0 0 0 0
0 0 0 0 0 0 0 0 0 0 0 0 0 0 0 0 0 0 -0 0 0 0 0 0 0 0 0 0 0 0 0 0 0 0 0 0 0 0 0 0 0 0 0 -0 0
0 0 0 0 0 0 0 0 0 0 0 0 0 0 0 0 0 -0 0 0 0 0 0 0 0 0 0 0 0 0 0 0 0 0 0 0 0 0 0 0 0 0 0 0 0
0 0 0 0 0 0 0 0 0 0 0 0 0 0 0 -0 -0 -0 -0 0 0 0 0 0 0 0 0 0 0 0 0 0 0 0 0 0 0 0 0 0 0 0 1 0 0
0 0 0 0 0 0 0 0 0 0 0 0 0 0 -0 -0 0 0 -0 0 0 0 0 0 0 0 0 0 0 0 0 0 0 0 0 0 0 0 0 0 0 0 0 0 0
0 0 0 0 0 0 0 0 0 0 0 0 0 -0 0 -0 -0 -0 0 0 0 0 0 0 0 0 0 0 0 0 0 0 0 0 0 0 0 0 0 0 0 0 0 0 0
0 0 0 0 0 0 0 0 0 0 0 0 -0 -0 0 0 0 0 0 0 0 0 0 0 0 0 0 0 0 0 0 0 0 0 0 0 0 0 0 0 0 0 0 0 0
0 0 0 0 0 0 0 0 0 0 -0 -0 -0 0 0 -0 0 0 0 0 0 0 0 0 0 0 0 0 0 0 0 0 0 0 0 0 0 0 0 0 0 0 0 0 0
0 0 0 0 0 0 0 0 0 -0 -0 -0 0 0 0 -0 0 0 0 0 0 0 0 0 0 0 0 0 0 0 0 0 0 0 0 0 0 0 0 0 0 0 0 0 0
0 0 0 0 0 0 0 0 0 -0 0 0 0 0 -0 0 0 0 0 -0 0 0 0 0 0 0 0 0 0 0 0 0 0 0 0 0 0 0 0 0 0 0 0 0 0
0 0 0 0 0 0 0 0 0 0 0 -0 0 0 0 0 0 0 0 0 -0 0 0 0 0 0 0 0 0 0 0 0 0 0 0 0 0 0 0 0 0 0 0 0 0
0 0 0 0 0 0 0 0 0 -0 -0 -0 0 0 0 0 0 0 0 0 -0 0 0 0 0 0 0 0 0 0 0 0 0 0 0 0 0 0 0 0 0 0 0 0 0
0 0 -0 0 0 0 0 0 0 -0 -0 0 0 0 0 0 0 0 0 0 0 -0 0 0 0 0 0 0 0 0 0 0 0 0 0 0 0 0 0 0 0 0 0 0 0
0 0 0 0 0 -0 0 0 -0 0 -0 0 0 0 0 0 0 0 0 0 0 -0 0 0 0 0 0 0 0 0 0 0 0 0 0 0 0 0 0 0 0 0 0 0 0
0 0 0 0 0 -0 0 0 0 -0 -0 0 0 0 0 0 0 0 0 0 0 0 0 0 0 0 0 0 0 0 0 0 0 0 0 0 0 0 0 0 0 0 0 0 0
0 0 0 0 0 0 0 0 0 -0 0 0 0 0 0 0 0 0 0 0 0 0 -0 0 0 0 0 0 0 0 0 0 0 0 0 0 0 0 0 0 0 0 0 0 0
0 0 0 0 -0 0 0 0 -0 -0 0 0 0 0 0 0 0 0 0 0 0 0 0 0 0 0 0 0 0 0 0 0 0 0 0 0 0 0 0 0 0 0 0 0 0
-0 0 0 0 0 0 0 0 -0 -0 -0 0 0 0 0 0 0 0 0 0 0 0 0 0 0 0 0 0 0 0 0 0 0 0 0 0 0 0 0 0 0 0 0 0 0
0 0 0 0 0 0 0 0 -0 -0 -0 0 0 0 0 0 -0 0 0 0 0 0 0 0 0 0 0 0 0 0 0 0 0 0 0 0 0 0 0 0 0 0 0 0 0
0 0 0 0 -0 0 -0 0 0 -0 -0 0 0 0 0 0 0 0 0 0 0 0 0 0 0 0 0 0 0 0 0 0 0 0 0 0 0 0 0 0 0 0 0 0 0
0 0 0 0 0 0 -0 0 0 -0 0 0 0 0 0 0 0 0 0 0 0 0 0 0 0 0 0 0 0 0 0 0 0 0 0 0 0 0 0 0 0 0 0 0 0
0 0 -0 -0 -0 0 0 0 0 0 0 -0 0 0 0 0 0 0 0 0 0 0 0 0 0 0 0 0 0 0 0 0 0 0 0 0 0 0 0 0 0 0 0 0 0
0 0 -0 -0 -0 0 -0 0 0 0 0 0 0 0 0 0 0 0 0 0 0 0 0 0 0 0 0 0 0 0 0 0 0 0 0 0 0 0 0 0 0 0 0 0 0
0 -0 -0 -0 -0 -0 -0 -0 0 0 -0 0 0 0 0 0 0 0 0 0 0 0 0 0 0 0 0 0 0 0 0 0 0 0 0 0 0 0 0 0 0 0 0 0 0
Wind_Speed_500mb
24 21 21 20 22 23 25 27 29 30 31 35 35 36 37 40 47 46 55 59 55 28 28 40 49 44 35 32 25 24 10 20 44 39 28 10 19 10 12 14 17 14 7 16 43
25 23 25 25 25 26 29 31 32 35 35 37 35 37 35 37 48 56 75 64 63 55 43 34 37 43 35 25 23 13 19 25 38 28 23 6 11 15 13 23 17 13 17 30 49
26 26 27 27 27 28 30 31 32 33 35 39 39 34 38 37 38 64 50 62 59 58 56 55 36 40 42 23 15 15 4 16 17 14 8 17 16 9 17 22 29 34 34 38 49
28 29 29 28 29 30 31 32 33 34 36 38 43 35 38 29 19 16 29 39 60 61 55 46 46 32 18 22 44 15 11 6 8 5 8 11 7 13 25 15 19 20 30 39 45
33 32 32 32 33 33 32 36 39 39 39 40 41 36 38 27 53 56 55 23 36 66 62 54 58 46 28 13 38 31 22 21 16 3 8 7 9 18 22 15 17 23 33 27 39
31 35 36 36 36 36 37 39 43 45 44 42 42 35 33 35 50 41 32 61 38 50 67 61 44 58 37 16 28 38 27 34 23 14 11 8 1 5 21 24 17 23 16 25 41
39 36 35 37 37 38 40 44 48 46 42 44 43 33 38 60 35 45 36 53 35 34 67 66 41 49 34 20 18 30 27 15 19 16 9 10 16 16 9 15 15 30 29 43 39
42 34 34 36 37 39 43 47 45 41 48 45 36 32 34 37 41 45 37 36 41 39 66 59 55 46 25 25 12 16 28 19 18 30 4 5 30 13 12 13 23 34 46 50 36
35 34 31 33 35 39 44 45 41 45 41 30 27 20 24 23 35 36 36 30 33 42 57 52 48 26 18 26 9 6 7 17 14 27 11 15 7 9 14 3 15 28 30 46 61
33 30 32 30 32 36 41 42 32 31 20 14 9 11 17 18 20 27 27 25 30 48 39 47 28 12 6 22 14 17 9 8 10 6 20 22 21 13 13 13 4 11 24 30 38
35 30 32 27 27 33 36 35 21 8 31 9 35 35 40 31 21 12 18 26 36 62 20 44 18 34 41 16 9 28 26 12 13 7 8 4 25 28 21 15 11 8 13 17 27
29 28 29 22 22 26 24 12 10 19 20 31 30 23 19 19 8 15 22 12 12 12 17 21 34 34 34 19 32 34 34 11 11 10 6 3 11 21 21 15 20 21 1 12 20
32 26 22 16 18 16 15 15 20 21 10 17 22 12 11 12 2 13 13 12 6 6 21 29 26 33 36 24 31 30 27 21 12 11 5 4 6 22 14 7 25 26 15 18 15
28 25 18 9 11 13 10 19 21 17 5 22 19 14 25 12 3 11 9 7 4 6 9 13 30 33 37 31 33 19 19 28 25 12 6 6 6 17 17 10 9 12 20 17 10
25 23 14 6 8 9 14 19 18 8 5 33 13 19 31 9 5 8 16 5 12 4 7 7 28 39 30 24 12 16 23 24 18 10 8 8 3 9 21 11 8 4 15 15 8
29 21 11 7 5 8 17 19 11 2 6 13 12 18 16 15 5 7 6 14 16 7 13 8 13 19 14 16 28 37 37 28 11 5 5 12 6 7 11 3 9 10 9 9 6
30 21 14 7 3 7 15 12 3 7 6 18 11 18 25 15 9 3 4 9 3 4 6 10 7 7 34 36 28 26 20 8 7 6 4 3 6 10 9 3 4 7 21 11 5
26 19 13 5 2 8 8 2 12 3 7 13 11 17 14 18 8 3 10 6 9 5 8 8 15 9 17 20 19 26 14 5 10 12 11 7 10 9 7 2 6 10 16 19 9
29 21 13 5 5 7 5 9 0 1 10 19 17 7 12 11 7 3 5 7 8 12 5 6 10 6 5 10 28 10 10 5 11 4 7 10 4 3 3 9 11 10 14 11 12
25 17 12 5 6 8 6 7 1 3 11 9 12 9 12 13 7 9 5 5 4 10 8 2 10 6 9 13 8 10 12 3 1 10 7 6 6 5 1 3 10 9 8 11 13
9 7 4 5 6 8 6 3 5 3 6 7 8 9 10 10 8 9 10 8 11 9 5 5 2 5 4 6 10 9 10 7 5 5 5 9 5 5 6 2 9 13 10 8 11
6 4 5 5 8 6 5 6 4 4 3 3 5 7 5 10 8 5 5 7 14 9 6 6 8 13 8 5 7 5 9 4 3 4 5 5 5 6 8 11 12 13 14 12 10
4 4 11 12 4 5 4 3 2 4 4 4 3 5 6 5 2 4 4 6 14 11 4 2 6 10 8 4 4 3 2 5 9 2 4 2 9 5 4 11 10 14 14 14 13
4 2 12 17 12 9 7 5 3 9 5 3 6 7 9 5 5 1 4 8 10 12 17 8 9 7 7 8 6 8 6 4 6 3 8 5 19 10 6 7 4 6 11 13 10
6 4 3 5 8 8 2 3 4 2 6 4 3 10 8 1 3 4 7 3 7 13 10 6 9 12 15 7 5 6 13 7 6 5 2 14 16 18 9 6 7 5 6 10 11
8 10 11 7 4 4 10 7 5 1 4 6 7 12 2 3 4 2 4 6 4 8 6 6 8 4 8 16 10 11 12 13 8 7 11 10 6 7 7 7 8 11 3 6 9
20 19 9 5 4 3 5 5 6 3 6 6 1 3 15 9 17 16 17 18 8 2 4 6 9 3 3 9 4 7 5 5 6 4 11 9 8 11 8 1 3 7 4 4 9
Wind_Direction_500mb
344 341 341 341 338 338 335 331 330 327 320 309 305 309 301 289 277 267 257 248 239 213 212 213 220 215 220 224 194 185 220 220 214 216 212 174 215 190 216 173 185 189 152 148 165
338 331 329 326 328 329 327 324 323 321 322 324 314 302 297 296 277 272 258 254 242 224 225 214 204 198 202 191 178 154 220 201 226 217 224 331 266 211 199 185 193 164 150 148 165
330 326 322 321 325 324 323 321 319 317 315 321 319 310 300 289 288 267 267 254 237 226 227 228 229 206 211 191 171 169 272 180 261 192 150 169 249 226 219 213 206 195 163 161 167
321 319 317 315 316 315 315 314 317 317 316 313 317 315 303 282 258 249 245 240 235 222 216 212 215 213 220 202 185 175 223 210 217 62 280 172 281 244 216 218 208 172 179 170 173
313 312 312 311 307 309 309 310 310 309 309 311 311 315 299 260 251 266 271 238 225 222 212 208 204 207 210 216 183 210 192 204 227 115 305 241 219 270 239 237 218 158 164 172 180
311 304 306 307 307 307 308 309 306 307 307 305 305 306 282 255 269 274 265 247 263 226 210 205 208 204 220 188 174 193 179 179 201 219 301 241 178 9 234 224 190 186 192 189 190
310 300 301 299 305 307 311 308 308 309 303 299 295 287 267 250 261 272 289 260 236 245 205 205 204 194 210 197 179 187 189 156 171 211 232 319 229 217 264 195 175 183 239 191 191
301 306 295 300 303 311 312 309 313 306 299 303 288 270 259 274 271 264 228 236 237 240 204 200 203 199 197 131 101 174 201 174 164 174 194 95 207 169 308 170 188 175 189 188 204
292 299 297 298 307 311 313 315 316 305 308 303 281 252 270 280 279 267 206 235 236 207 193 195 190 190 162 142 120 5 176 153 149 191 130 180 191 36 10 346 186 181 183 185 194
292 294 293 298 308 314 317 320 317 309 337 320 268 260 267 289 302 202 212 235 235 170 176 187 193 176 184 161 175 145 117 138 132 44 191 171 239 271 346 20 236 183 203 183 173
287 284 289 298 308 318 323 343 351 342 341 298 292 265 287 296 264 238 222 239 233 162 167 190 180 194 190 187 159 130 124 125 95 61 79 52 215 243 294 314 16 219 191 170 168
289 277 283 293 306 320 334 13 9 315 305 310 327 264 289 306 252 230 208 200 340 132 169 154 198 189 176 169 162 134 126 115 79 109 90 83 255 239 271 285 17 360 244 142 171
267 275 276 287 307 318 339 357 343 335 292 298 317 320 326 327 319 168 182 125 325 100 175 164 158 153 147 152 139 123 157 154 138 135 72 154 229 214 251 228 49 48 82 100 138
253 255 257 279 299 312 323 341 338 340 301 353 344 357 337 334 70 126 131 149 72 25 96 87 148 150 163 163 148 109 137 133 134 163 179 268 172 204 192 77 58 46 50 76 75
226 235 232 246 276 303 313 335 331 343 359 327 320 343 346 333 324 102 51 67 88 52 266 77 155 151 146 147 131 130 143 118 110 116 156 181 226 121 180 138 177 217 58 70 84
204 210 202 223 266 310 314 324 325 240 9 334 322 343 336 1 46 54 76 60 127 95 25 88 132 159 143 143 113 119 100 80 105 125 174 169 235 127 135 219 185 163 107 77 107
179 180 177 193 213 322 318 322 319 45 317 333 342 339 322 6 33 52 65 83 39 85 18 62 80 129 135 110 123 134 131 138 147 172 123 143 206 66 87 21 198 173 152 152 133
175 157 157 175 309 345 343 10 49 70 288 324 327 331 13 8 25 66 140 88 30 56 95 19 117 100 176 139 163 162 167 189 151 165 128 131 209 116 59 117 86 103 168 190 197
151 139 132 94 356 5 22 54 21 199 335 336 323 360 15 3 351 285 106 94 2 1 66 105 62 24 124 111 149 165 201 28 107 49 145 157 111 180 186 83 86 108 142 168 197
138 123 82 54 26 2 70 102 276 356 331 344 357 356 6 346 329 9 62 33 67 27 320 103 112 26 100 120 66 174 147 171 61 143 122 157 154 98 101 49 135 141 138 140 151
124 89 78 43 11 46 73 77 289 282 308 346 337 328 336 344 5 30 23 41 9 351 32 125 21 117 153 15 144 140 184 43 81 23 112 145 102 14 9 320 125 131 143 147 134
3 56 28 12 52 51 77 139 296 334 23 316 295 272 302 334 10 56 77 12 347 319 52 28 68 133 67 32 22 338 173 203 232 156 52 50 94 42 40 71 113 145 156 152 135
47 68 35 8 79 82 108 120 289 296 11 352 279 292 315 351 26 51 69 347 5 16 44 71 47 115 101 353 48 71 88 151 106 83 125 139 143 81 74 99 123 153 159 149 139
77 75 35 61 61 105 138 91 117 306 291 259 288 296 287 8 350 96 93 29 0 9 13 93 61 35 149 73 85 151 156 83 90 123 141 52 144 173 149 109 130 171 159 150 147
68 76 67 54 52 83 88 137 91 40 297 328 1 4 306 335 329 37 56 98 61 341 360 66 86 88 68 47 99 129 164 141 99 121 89 152 148 158 151 101 77 52 159 164 178
105 137 88 89 77 30 12 27 49 195 354 10 1 17 2 111 345 56 32 25 36 38 47 22 130 160 62 26 118 123 122 112 90 116 89 126 117 107 93 92 74 51 42 218 220
101 113 119 66 68 71 23 22 353 264 112 70 29 87 66 39 35 39 78 75 54 66 74 66 135 83 72 350 336 99 177 142 128 164 144 169 122 150 153 110 313 333 344 264 216
Wind_Speed_850mb
24 21 21 20 22 23 25 27 29 30 31 35 35 36 37 40 47 46 55 59 55 28 28 40 49 44 35 32 25 24 10 20 44 39 28 10 19 10 12 14 17 14 7 16 43
25 23 25 25 25 26 29 31 32 35 35 37 35 37 35 37 48 56 75 64 63 55 43 34 37 43 35 25 23 13 19 25 38 28 23 6 11 15 13 23 17 13 17 30 49
26 26 27 27 27 28 30 31 32 33 35 39 39 34 38 37 38 64 50 62 59 58 56 55 36 40 42 23 15 15 4 16 17 14 8 17 16 9 17 22 29 34 34 38 49
28 29 29 28 29 30 31 32 33 34 36 38 43 35 38 29 19 16 29 39 60 61 55 46 46 32 18 22 44 15 11 6 8 5 8 11 7 13 25 15 19 20 30 39 45
33 32 32 32 33 33 32 36 39 39 39 40 41 36 38 27 53 56 55 23 36 66 62 54 58 46 28 13 38 31 22 21 16 3 8 7 9 18 22 15 17 23 33 27 39
31 35 36 36 36 36 37 39 43 45 44 42 42 35 33 35 50 41 32 61 38 50 67 61 44 58 37 16 28 38 27 34 23 14 11 8 1 5 21 24 17 23 16 25 41
39 36 35 37 37 38 40 44 48 46 42 44 43 33 38 60 35 45 36 53 35 34 67 66 41 49 34 20 18 30 27 15 19 16 9 10 16 16 9 15 15 30 29 43 39
42 34 34 36 37 39 43 47 45 41 48 45 36 32 34 37 41 45 37 36 41 39 66 59 55 46 25 25 12 16 28 19 18 30 4 5 30 13 12 13 23 34 46 50 36
35 34 31 33 35 39 44 45 41 45 41 30 27 20 24 23 35 36 36 30 33 42 57 52 48 26 18 26 9 6 7 17 14 27 11 15 7 9 14 3 15 28 30 46 61
33 30 32 30 32 36 41 42 32 31 20 14 9 11 17 18 20 27 27 25 30 48 39 47 28 12 6 22 14 17 9 8 10 6 20 22 21 13 13 13 4 11 24 30 38
35 30 32 27 27 33 36 35 21 8 31 9 35 35 40 31 21 12 18 26 36 62 20 44 18 34 41 16 9 28 26 12 13 7 8 4 25 28 21 15 11 8 13 17 27
29 28 29 22 22 26 24 12 10 19 20 31 30 23 19 19 8 15 22 12 12 12 17 21 34 34 34 19 32 34 34 11 11 10 6 3 11 21 21 15 20 21 1 12 20
32 26 22 16 18 16 15 15 20 21 10 17 22 12 11 12 2 13 13 12 6 6 21 29 26 33 36 24 31 30 27 21 12 11 5 4 6 22 14 7 25 26 15 18 15
28 25 18 9 11 13 10 19 21 17 5 22 19 14 25 12 3 11 9 7 4 6 9 13 30 33 37 31 33 19 19 28 25 12 6 6 6 17 17 10 9 12 20 17 10
25 23 14 6 8 9 14 19 18 8 5 33 13 19 31 9 5 8 16 5 12 4 7 7 28 39 30 24 12 16 23 24 18 10 8 8 3 9 21 11 8 4 15 15 8
29 21 11 7 5 8 17 19 11 2 6 13 12 18 16 15 5 7 6 14 16 7 13 8 13 19 14 16 28 37 37 28 11 5 5 12 6 7 11 3 9 10 9 9 6
30 21 14 7 3 7 15 12 3 7 6 18 11 18 25 15 9 3 4 9 3 4 6 10 7 7 34 36 28 26 20 8 7 6 4 3 6 10 9 3 4 7 21 11 5
26 19 13 5 2 8 8 2 12 3 7 13 11 17 14 18 8 3 10 6 9 5 8 8 15 9 17 20 19 26 14 5 10 12 11 7 10 9 7 2 6 10 16 19 9
29 21 13 5 5 7 5 9 0 1 10 19 17 7 12 11 7 3 5 7 8 12 5 6 10 6 5 10 28 10 10 5 11 4 7 10 4 3 3 9 11 10 14 11 12
25 17 12 5 6 8 6 7 1 3 11 9 12 9 12 13 7 9 5 5 4 10 8 2 10 6 9 13 8 10 12 3 1 10 7 6 6 5 1 3 10 9 8 11 13
9 7 4 5 6 8 6 3 5 3 6 7 8 9 10 10 8 9 10 8 11 9 5 5 2 5 4 6 10 9 10 7 5 5 5 9 5 5 6 2 9 13 10 8 11
6 4 5 5 8 6 5 6 4 4 3 3 5 7 5 10 8 5 5 7 14 9 6 6 8 13 8 5 7 5 9 4 3 4 5 5 5 6 8 11 12 13 14 12 10
4 4 11 12 4 5 4 3 2 4 4 4 3 5 6 5 2 4 4 6 14 11 4 2 6 10 8 4 4 3 2 5 9 2 4 2 9 5 4 11 10 14 14 14 13
4 2 12 17 12 9 7 5 3 9 5 3 6 7 9 5 5 1 4 8 10 12 17 8 9 7 7 8 6 8 6 4 6 3 8 5 19 10 6 7 4 6 11 13 10
6 4 3 5 8 8 2 3 4 2 6 4 3 10 8 1 3 4 7 3 7 13 10 6 9 12 15 7 5 6 13 7 6 5 2 14 16 18 9 6 7 5 6 10 11
8 10 11 7 4 4 10 7 5 1 4 6 7 12 2 3 4 2 4 6 4 8 6 6 8 4 8 16 10 11 12 13 8 7 11 10 6 7 7 7 8 11 3 6 9
20 19 9 5 4 3 5 5 6 3 6 6 1 3 15 9 17 16 17 18 8 2 4 6 9 3 3 9 4 7 5 5 6 4 11 9 8 11 8 1 3 7 4 4 9
Wind_Direction_850mb
344 341 341 341 338 338 335 331 330 327 320 309 305 309 301 289 277 267 257 248 239 213 212 213 220 215 220 224 194 185 220 220 214 216 212 174 215 190 216 173 185 189 152 148 165
338 331 329 326 328 329 327 324 323 321 322 324 314 302 297 296 277 272 258 254 242 224 225 214 204 198 202 191 178 154 220 201 226 217 224 331 266 211 199 185 193 164 150 148 165
330 326 322 321 325 324 323 321 319 317 315 321 319 310 300 289 288 267 267 254 237 226 227 228 229 206 211 191 171 169 272 180 261 192 150 169 249 226 219 213 206 195 163 161 167
321 319 317 315 316 315 315 314 317 317 316 313 317 315 303 282 258 249 245 240 235 222 216 212 215 213 220 202 185 175 223 210 217 62 280 172 281 244 216 218 208 172 179 170 173
313 312 312 311 307 309 309 310 310 309 309 311 311 315 299 260 251 266 271 238 225 222 212 208 204 207 210 216 183 210 192 204 227 115 305 241 219 270 239 237 218 158 164 172 180
311 304 306 307 307 307 308 309 306 307 307 305 305 306 282 255 269 274 265 247 263 226 210 205 208 204 220 188 174 193 179 179 201 219 301 241 178 9 234 224 190 186 192 189 190
310 300 301 299 305 307 311 308 308 309 303 299 295 287 267 250 261 272 289 260 236 245 205 205 204 194 210 197 179 187 189 156 171 211 232 319 229 217 264 195 175 183 239 191 191
301 306 295 300 303 311 312 309 313 306 299 303 288 270 259 274 271 264 228 236 237 240 204 200 203 199 197 131 101 174 201 174 164 174 194 95 207 169 308 170 188 175 189 188 204
292 299 297 298 307 311 313 315 316 305 308 303 281 252 270 280 279 267 206 235 236 207 193 195 190 190 162 142 120 5 176 153 149 191 130 180 191 36 10 346 186 181 183 185 194
292 294 293 298 308 314 317 320 317 309 337 320 268 260 267 289 302 202 212 235 235 170 176 187 193 176 184 161 175 145 117 138 132 44 191 171 239 271 346 20 236 183 203 183 173
287 284 289 298 308 318 323 343 351 342 341 298 292 265 287 296 264 238 222 239 233 162 167 190 180 194 190 187 159 130 124 125 95 61 79 52 215 243 294 314 16 219 191 170 168
289 277 283 293 306 320 334 13 9 315 305 310 327 264 289 306 252 230 208 200 340 132 169 154 198 189 176 169 162 134 126 115 79 109 90 83 255 239 271 285 17 360 244 142 171
267 275 276 287 307 318 339 357 343 335 292 298 317 320 326 327 319 168 182 125 325 100 175 164 158 153 147 152 139 123 157 154 138 135 72 154 229 214 251 228 49 48 82 100 138
253 255 257 279 299 312 323 341 338 340 301 353 344 357 337 334 70 126 131 149 72 25 96 87 148 150 163 163 148 109 137 133 134 163 179 268 172 204 192 77 58 46 50 76 75
226 235 232 246 276 303 313 335 331 343 359 327 320 343 346 333 324 102 51 67 88 52 266 77 155 151 146 147 131 130 143 118 110 116 156 181 226 121 180 138 177 217 58 70 84
204 210 202 223 266 310 314 324 325 240 9 334 322 343 336 1 46 54 76 60 127 95 25 88 132 159 143 143 113 119 100 80 105 125 174 169 235 127 135 219 185 163 107 77 107
179 180 177 193 213 322 318 322 319 45 317 333 342 339 322 6 33 52 65 83 39 85 18 62 80 129 135 110 123 134 131 138 147 172 123 143 206 66 87 21 198 173 152 152 133
175 157 157 175 309 345 343 10 49 70 288 324 327 331 13 8 25 66 140 88 30 56 95 19 117 100 176 139 163 162 167 189 151 165 128 131 209 116 59 117 86 103 168 190 197
151 139 132 94 356 5 22 54 21 199 335 336 323 360 15 3 351 285 106 94 2 1 66 105 62 24 124 111 149 165 201 28 107 49 145 157 111 180 186 83 86 108 142 168 197
138 123 82 54 26 2 70 102 276 356 331 344 357 356 6 346 329 9 62 33 67 27 320 103 112 26 100 120 66 174 147 171 61 143 122 157 154 98 101 49 135 141 138 140 151
124 89 78 43 11 46 73 77 289 282 308 346 337 328 336 344 5 30 23 41 9 351 32 125 21 117 153 15 144 140 184 43 81 23 112 145 102 14 9 320 125 131 143 147 134
3 56 28 12 52 51 77 139 296 334 23 316 295 272 302 334 10 56 77 12 347 319 52 28 68 133 67 32 22 338 173 203 232 156 52 50 94 42 40 71 113 145 156 152 135
47 68 35 8 79 82 108 120 289 296 11 352 279 292 315 351 26 51 69 347 5 16 44 71 47 115 101 353 48 71 88 151 106 83 125 139 143 81 74 99 123 153 159 149 139
77 75 35 61 61 105 138 91 117 306 291 259 288 296 287 8 350 96 93 29 0 9 13 93 61 35 149 73 85 151 156 83 90 123 141 52 144 173 149 109 130 171 159 150 147
68 76 67 54 52 83 88 137 91 40 297 328 1 4 306 335 329 37 56 98 61 341 360 66 86 88 68 47 99 129 164 141 99 121 89 152 148 158 151 101 77 52 159 164 178
105 137 88 89 77 30 12 27 49 195 354 10 1 17 2 111 345 56 32 25 36 38 47 22 130 160 62 26 118 123 122 112 90 116 89 126 117 107 93 92 74 51 42 218 220
101 113 119 66 68 71 23 22 353 264 112 70 29 87 66 39 35 39 78 75 54 66 74 66 135 83 72 350 336 99 177 142 128 164 144 169 122 150 153 110 313 333 344 264 216